Location: Unspecified
(47.6579°N, 23.5637°E)
Time: 04:19:01
(UTC+02:00)

Envisat - Pass Details

Date: 05 December 2021
Orbit: 764 x 766 km, 98.2° (Epoch: 17 January)

Event Time Altitude Azimuth Distance (km) Brightness Sun altitude
Rises 18:12:55 0° 224° (SW) 3,223 7.3 -15.8°
Reaches altitude 10° 18:17:20 10° 261° (W) 2,305 6.8 -16.5°
Maximum altitude 18:18:35 11° 275° (W) 2,250 6.5 -16.7°
Drops below altitude 10° 18:19:50 10° 290° (WNW) 2,310 6.3 -16.9°
Sets 18:24:18 0° 326° (NNW) 3,244 6.5 -17.7°
